Date String (YYYY-MM-DD hh:mm:ss) UTC,Instrument flags,Ambient pressure (hPa),Sample flow (lpm),Bypass flow (lpm),Sample temperature (°C),Ambient temperature (°C),ASC tube jacket temperature (°C),LED temperature (°C),Box temperature (°C),Sample RH (%),Span deviation,Mass concentration (μg/m³),Mass concentration (μg/m³),Mass concentration (μg/m³)
DateTimeUTC,F1_M11,P_M11,Q1_M11,Q2_M11,T1_M11,T2_M11,T3_M11,T4_M11,T5_M11,U1_M11,ZSPAN_M11,X0_M11,X2_M11,X1_M11
2021-11-24 03:00:00,,0815.2,5.00,0.00,27.0,26.2,00.0,36.1,28.7,08.9,0000.0,0005.01,0002.36,0001.74
2021-11-24 03:01:00,,0815.1,5.01,0.00,27.0,26.2,00.0,36.1,28.7,09.0,0000.0,0004.02,0002.34,0001.76
2021-11-24 03:02:00,,0814.8,4.99,0.00,27.0,26.2,00.0,36.1,28.7,09.1,0000.0,0003.93,0002.34,0001.78
2021-11-24 03:03:00,,0814.7,5.00,0.00,27.0,26.2,00.0,36.1,28.7,09.3,0000.0,0004.06,0002.38,0001.80
2021-11-24 03:04:00,,0815.1,5.00,0.00,27.0,26.1,00.0,36.1,28.7,09.4,0000.0,0004.30,0002.45,0001.82
2021-11-24 03:05:00,,0815.0,5.00,0.00,26.9,26.1,00.0,36.1,28.6,09.3,0000.0,0004.26,0002.46,0001.83
2021-11-24 03:06:00,,0815.1,4.99,0.00,26.9,26.1,00.0,36.1,28.6,09.2,0000.0,0004.29,0002.48,0001.84
2021-11-24 03:07:00,,0814.6,5.00,0.00,26.9,26.1,00.0,36.1,28.6,09.2,0000.0,0005.17,0002.60,0001.84
2021-11-24 03:08:00,,0814.7,5.01,0.00,26.9,26.1,00.0,36.0,28.6,09.2,0000.0,0005.22,0002.60,0001.82
2021-11-24 03:09:00,,0814.7,5.00,0.00,26.9,26.1,00.0,36.0,28.6,09.2,0000.0,0005.37,0002.64,0001.81
2021-11-24 03:10:00,,0814.7,4.99,0.00,26.9,26.1,00.0,36.0,28.6,09.2,0000.0,0005.41,0002.64,0001.80
2021-11-24 03:11:00,,0814.8,4.99,0.00,26.9,26.1,00.0,36.0,28.6,09.2,0000.0,0005.39,0002.64,0001.80
2021-11-24 03:12:00,,0815.0,5.00,0.00,26.8,26.1,00.0,36.0,28.6,09.2,0000.0,0006.39,0002.72,0001.80
2021-11-24 03:13:00,,0814.9,4.99,0.00,26.8,26.1,00.0,36.0,28.6,09.2,0000.0,0006.91,0002.70,0001.80
2021-11-24 03:14:00,,0815.1,5.00,0.00,26.8,26.1,00.0,36.0,28.6,09.2,0000.0,0007.41,0002.64,0001.79
2021-11-24 03:15:00,,0814.8,5.00,0.00,26.8,26.1,00.0,36.0,28.6,09.1,0000.0,0007.40,0002.61,0001.79
2021-11-24 03:16:00,,0814.6,4.99,0.00,26.8,26.1,00.0,36.0,28.6,09.2,0000.0,0007.67,0002.59,0001.78
2021-11-24 03:17:00,,0815.0,5.00,0.00,26.8,26.1,00.0,36.0,28.6,09.2,0000.0,0007.64,0002.58,0001.78
2021-11-24 03:18:00,,0815.1,5.00,0.00,26.8,26.1,00.0,35.9,28.6,09.2,0000.0,0006.95,0002.47,0001.78
2021-11-24 03:19:00,,0815.1,5.00,0.00,26.8,26.1,00.0,35.9,28.6,09.3,0000.0,0006.82,0002.47,0001.80
2021-11-24 03:20:00,,0815.1,4.98,0.00,26.8,26.1,00.0,35.9,28.6,09.2,0000.0,0006.78,0002.47,0001.80
2021-11-24 03:21:00,,0815.2,5.00,0.00,26.9,26.1,00.0,35.9,28.7,09.3,0000.0,0006.71,0002.46,0001.81
2021-11-24 03:22:00,,0814.6,5.01,0.00,26.9,26.1,00.0,35.9,28.7,09.2,0000.0,0006.67,0002.44,0001.81
2021-11-24 03:23:00,,0814.4,4.99,0.00,26.9,26.2,00.0,35.9,28.6,09.2,0000.0,0005.66,0002.35,0001.80
2021-11-24 03:24:00,,0814.4,5.01,0.00,26.9,26.2,00.0,35.9,28.7,09.1,0000.0,0005.58,0002.35,0001.80
2021-11-24 03:25:00,,0814.4,5.01,0.00,26.9,26.2,00.0,35.9,28.6,09.1,0000.0,0005.36,0002.36,0001.80
2021-11-24 03:26:00,,0814.4,4.99,0.00,26.9,26.2,00.0,35.9,28.6,09.1,0000.0,0005.23,0002.34,0001.78
2021-11-24 03:27:00,,0814.5,5.00,0.00,26.9,26.2,00.0,35.9,28.7,09.1,0000.0,0004.74,0002.33,0001.78
2021-11-24 03:28:00,,0814.6,5.01,0.00,26.9,26.2,00.0,35.9,28.7,09.1,0000.0,0005.17,0002.31,0001.77
2021-11-24 03:29:00,,0814.6,5.02,0.00,26.9,26.2,00.0,35.9,28.7,09.1,0000.0,0005.35,0002.33,0001.77
2021-11-24 03:30:00,,0814.4,4.99,0.00,26.9,26.2,00.0,35.9,28.7,09.0,0000.0,0005.24,0002.28,0001.75
2021-11-24 03:31:00,,0814.4,5.00,0.00,26.9,26.2,00.0,35.9,28.7,09.0,0000.0,0005.26,0002.28,0001.75
2021-11-24 03:32:00,,0814.3,5.00,0.00,26.9,26.2,00.0,35.9,28.7,09.1,0000.0,0005.40,0002.31,0001.75
2021-11-24 03:33:00,,0814.4,5.00,0.00,27.0,26.2,00.0,35.9,28.8,09.1,0000.0,0005.50,0002.36,0001.75
2021-11-24 03:34:00,,0814.4,4.99,0.00,26.9,26.2,00.0,35.9,28.7,09.1,0000.0,0005.56,0002.38,0001.75
2021-11-24 03:35:00,,0814.4,5.00,0.00,26.9,26.2,00.0,36.0,28.7,09.0,0000.0,0004.94,0002.39,0001.75
2021-11-24 03:36:00,,0814.4,5.01,0.00,27.0,26.1,00.0,36.0,28.7,09.0,0000.0,0004.24,0002.36,0001.75
2021-11-24 03:37:00,,0814.4,5.00,0.00,27.0,26.1,00.0,36.0,28.8,08.9,0000.0,0004.78,0002.33,0001.77
2021-11-24 03:38:00,,0814.4,4.99,0.00,27.0,26.1,00.0,36.0,28.8,08.8,0000.0,0005.09,0002.34,0001.77
2021-11-24 03:39:00,,0814.4,5.01,0.00,27.0,26.1,00.0,36.0,28.8,08.7,0000.0,0004.64,0002.31,0001.76
2021-11-24 03:40:00,,0814.6,5.00,0.00,27.0,26.1,00.0,36.0,28.7,08.7,0000.0,0004.49,0002.29,0001.76
2021-11-24 03:41:00,,0814.5,5.01,0.00,27.0,26.0,00.0,36.0,28.6,08.7,0000.0,0004.53,0002.30,0001.76
2021-11-24 03:42:00,,0814.4,5.00,0.00,27.0,26.1,00.0,36.0,28.6,08.6,0000.0,0004.66,0002.32,0001.76
2021-11-24 03:43:00,,0814.3,4.99,0.00,26.9,26.1,00.0,36.0,28.7,08.7,0000.0,0004.75,0002.28,0001.75
2021-11-24 03:44:00,,0814.3,4.99,0.00,27.0,26.0,00.0,36.0,28.7,08.6,0000.0,0004.78,0002.23,0001.72
2021-11-24 03:45:00,,0814.4,5.00,0.00,27.0,26.0,00.0,36.0,28.7,08.5,0000.0,0004.75,0002.23,0001.71
2021-11-24 03:46:00,,0814.5,5.02,0.00,26.9,26.0,00.0,36.0,28.7,08.5,0000.0,0004.73,0002.20,0001.71
2021-11-24 03:47:00,,0814.4,5.00,0.00,26.9,26.0,00.0,36.0,28.6,08.2,0000.0,0004.80,0002.20,0001.69
2021-11-24 03:48:00,,0814.4,5.00,0.00,26.9,26.0,00.0,36.0,28.6,08.4,0000.0,0004.72,0002.26,0001.68
2021-11-24 03:49:00,,0814.4,5.00,0.00,26.9,26.0,00.0,36.0,28.6,08.4,0000.0,0004.18,0002.26,0001.68
2021-11-24 03:50:00,,0814.4,5.00,0.00,26.9,26.0,00.0,36.0,28.7,08.2,0000.0,0004.27,0002.24,0001.65
2021-11-24 03:51:00,,0814.5,4.99,0.00,26.9,26.0,00.0,36.0,28.6,08.2,0000.0,0004.34,0002.23,0001.63
2021-11-24 03:52:00,,0814.3,5.00,0.00,26.9,26.0,00.0,36.0,28.6,08.3,0000.0,0004.54,0002.26,0001.61
2021-11-24 03:53:00,,0814.2,5.00,0.00,26.9,26.0,00.0,36.0,28.6,08.4,0000.0,0004.34,0002.20,0001.59
2021-11-24 03:54:00,,0814.6,5.00,0.00,26.9,26.0,00.0,36.0,28.6,08.4,0000.0,0004.24,0002.20,0001.59
2021-11-24 03:55:00,,0814.2,5.00,0.00,26.9,26.0,00.0,36.0,28.6,08.6,0000.0,0004.42,0002.19,0001.60
2021-11-24 03:56:00,,0814.2,4.99,0.00,26.9,26.0,00.0,36.0,28.7,08.6,0000.0,0004.53,0002.17,0001.60
2021-11-24 03:57:00,,0814.2,5.01,0.00,26.9,26.0,00.0,36.0,28.7,08.6,0000.0,0004.99,0002.18,0001.60
2021-11-24 03:58:00,,0814.4,5.00,0.00,26.9,26.0,00.0,36.0,28.7,08.6,0000.0,0005.03,0002.18,0001.62
2021-11-24 03:59:00,,0814.4,5.00,0.00,26.9,26.0,00.0,36.0,28.6,08.4,0000.0,0004.88,0002.11,0001.62
